Weather History for KPIH - December, 2012

Change the Weather History Date:

Wednesday, December 12, 2012

  Actual Average Record
Temperature  
Mean Temperature 37 °F 24 °F  
Max Temperature 43 °F 33 °F 59 °F (2014)
Min Temperature 30 °F 16 °F -11 °F (1985)
Degree Days  
Heating Degree Days 28 41  
Month to date heating degree days 334 471  
Since 1 July heating degree days 1785 2199  
Cooling Degree Days 0 0  
Month to date cooling degree days 0 0  
Year to date cooling degree days 560 392  
Moisture  
Dew Point 27 °F    
Average Humidity 69    
Maximum Humidity 92    
Minimum Humidity 45    
Precipitation  
Precipitation T in 0.04 in 0.36 in (1995)
Month to date precipitation 0.59 0.50  
Year to date precipitation 9.88 11.39  
Snow  
Snow T in - - ()
Month to date snowfall 0.1  
Since 1 July snowfall 7.2  
Snow Depth 0.00 in    
Sea Level Pressure  
Sea Level Pressure 29.74 in    
Wind  
Wind Speed 9 mph (SSW)    
Max Wind Speed 25 mph    
Max Gust Speed 33 mph    
Visibility 10 miles    
Events Snow    
T = Trace of Precipitation, MM = Missing Value Source: NWS Daily Summary

Daily Weather History Graph

Daily Weather History Graph

Search for Another Location

Airport or City:

Trip Planner

Search our weather history database for the weather conditions in past years. The results will help you decide how hot, cold, wet, or windy it might be!

Date:

Astronomy

Dec. 12, 2012 Rise Set
Actual Time 7:52 AM MST 4:56 PM MST
Civil Twilight 7:20 AM MST 5:28 PM MST
Nautical Twilight 6:44 AM MST 6:04 PM MST
Astronomical Twilight 6:10 AM MST 6:38 PM MST
Moon 7:00 AM MST (12/12) 4:37 PM MST (12/12)
Length of Visible Light 10h 08m
Length of Day
9h 03m
Waning Crescent, 0% of the Moon is Illuminated
Dec 12
Waning Crescent
Dec 13
New
Dec 19
First Quarter
Dec 28
Full
Jan 4
Last Quarter

Hourly Weather History & Observations

Time (MST) Temp. Windchill Dew Point Humidity Pressure Visibility Wind Dir Wind Speed Gust Speed Precip Events Conditions
12:53 AM 42.1 °F 33.9 °F 23.0 °F 47% 29.60 in 10.0 mi South 17.3 mph 25.3 mph N/A   Partly Cloudy
1:53 AM 41.0 °F 34.3 °F 23.0 °F 49% 29.62 in 10.0 mi South 11.5 mph - N/A   Clear
2:53 AM 39.9 °F 35.1 °F 23.0 °F 51% 29.63 in 10.0 mi SSW 6.9 mph 17.3 mph N/A   Clear
3:53 AM 34.0 °F 31.0 °F 24.1 °F 67% 29.63 in 10.0 mi Variable 3.5 mph - N/A   Clear
4:53 AM 37.0 °F 31.0 °F 24.1 °F 59% 29.62 in 10.0 mi South 8.1 mph - N/A   Clear
5:53 AM 35.1 °F 29.3 °F 24.1 °F 64% 29.63 in 10.0 mi SSW 6.9 mph - N/A   Clear
6:53 AM 37.0 °F 29.8 °F 24.1 °F 59% 29.63 in 10.0 mi South 10.4 mph - N/A   Mostly Cloudy
7:53 AM 37.9 °F 29.6 °F 24.1 °F 57% 29.66 in 10.0 mi SSW 13.8 mph - N/A   Mostly Cloudy
8:53 AM 36.0 °F 27.5 °F 27.0 °F 70% 29.71 in 10.0 mi SW 12.7 mph - N/A   Overcast
9:19 AM 35.6 °F 27.1 °F 28.4 °F 75% 29.72 in 9.0 mi SW 12.7 mph - 0.00 in Snow Light Snow
9:53 AM 35.1 °F 26.9 °F 30.9 °F 85% 29.74 in 9.0 mi SSW 11.5 mph - 0.00 in   Overcast
10:25 AM 35.6 °F 28.6 °F 30.2 °F 81% 29.75 in 10.0 mi SSW 9.2 mph - N/A   Overcast
10:53 AM 36.0 °F 27.5 °F 30.9 °F 82% 29.77 in 10.0 mi SSW 12.7 mph - N/A   Overcast
11:53 AM 37.0 °F 27.4 °F 30.9 °F 79% 29.75 in 10.0 mi SSW 17.3 mph - N/A   Mostly Cloudy
12:53 PM 42.1 °F 33.3 °F 30.0 °F 62% 29.75 in 10.0 mi SW 19.6 mph - N/A   Mostly Cloudy
1:53 PM 39.9 °F 32.5 °F 30.0 °F 68% 29.76 in 10.0 mi WSW 12.7 mph - N/A   Scattered Clouds
2:53 PM 42.1 °F 35.2 °F 30.0 °F 62% 29.77 in 10.0 mi West 12.7 mph - N/A   Scattered Clouds
3:53 PM 42.1 °F 37.1 °F 28.0 °F 58% 29.80 in 10.0 mi West 8.1 mph - N/A   Scattered Clouds
4:53 PM 37.9 °F 34.4 °F 28.9 °F 70% 29.81 in 10.0 mi WSW 4.6 mph - N/A   Mostly Cloudy
5:53 PM 34.0 °F 31.0 °F 28.0 °F 79% 29.83 in 10.0 mi South 3.5 mph - N/A   Mostly Cloudy
6:53 PM 34.0 °F 29.8 °F 28.0 °F 79% 29.83 in 10.0 mi South 4.6 mph - N/A   Mostly Cloudy
7:53 PM 33.1 °F 27.7 °F 28.0 °F 82% 29.83 in 10.0 mi East 5.8 mph - N/A   Mostly Cloudy
8:53 PM 30.9 °F - 27.0 °F 85% 29.86 in 10.0 mi Calm Calm - N/A   Mostly Cloudy
9:53 PM 32.0 °F 27.5 °F 28.0 °F 85% 29.86 in 10.0 mi NE 4.6 mph - N/A   Overcast
10:53 PM 30.9 °F 27.5 °F 28.0 °F 89% 29.88 in 10.0 mi South 3.5 mph - N/A   Overcast
11:53 PM 30.9 °F 27.5 °F 28.0 °F 89% 29.88 in 10.0 mi NNW 3.5 mph - N/A   Mostly Cloudy